Time,TemperatureF,DewpointF,PressureIn,WindDirection,WindDirectionDegrees,WindSpeedMPH,WindSpeedGustMPH,Humidity,HourlyPrecipIn,Conditions,Clouds,dailyrainin,SoftwareType,DateUTC
2013-03-06 00:14:00,34.7,31.1,30.21,NNE,33,1.2,3.8,87,0.00,,,0.00,WUHU216HW,2013-03-06 05:14:00,
2013-03-06 00:29:00,34.6,31.3,30.21,WNW,303,0.9,2.5,88,0.00,,,0.00,WUHU216HW,2013-03-06 05:29:00,
2013-03-06 00:44:00,34.2,31.0,30.22,NNW,345,1.1,4.0,88,0.00,,,0.00,WUHU216HW,2013-03-06 05:44:00,
2013-03-06 00:59:00,34.2,31.0,30.22,NW,319,0.8,2.2,88,0.00,,,0.00,WUHU216HW,2013-03-06 05:59:00,
2013-03-06 01:14:00,34.2,31.2,30.22,WNW,300,0.9,2.5,89,0.00,,,0.00,WUHU216HW,2013-03-06 06:14:00,
2013-03-06 01:29:00,34.0,31.1,30.22,NNW,339,0.8,2.7,89,0.00,,,0.00,WUHU216HW,2013-03-06 06:29:00,
2013-03-06 01:44:00,34.0,31.1,30.22,NW,317,1.2,3.6,89,0.00,,,0.00,WUHU216HW,2013-03-06 06:44:00,
2013-03-06 01:59:00,33.8,30.9,30.23,NW,307,0.9,4.9,89,0.00,,,0.00,WUHU216HW,2013-03-06 06:59:00,
2013-03-06 02:14:00,33.8,31.1,30.23,North,8,0.8,2.5,90,0.00,,,0.00,WUHU216HW,2013-03-06 07:14:00,
2013-03-06 02:29:00,33.8,31.1,30.22,NNE,19,0.9,2.0,90,0.00,,,0.00,WUHU216HW,2013-03-06 07:29:00,
2013-03-06 02:44:00,33.7,31.2,30.23,NNW,345,0.8,3.1,91,0.00,,,0.00,WUHU216HW,2013-03-06 07:44:00,
2013-03-06 02:59:00,33.7,31.0,30.23,NW,322,0.8,2.5,90,0.00,,,0.00,WUHU216HW,2013-03-06 07:59:00,
2013-03-06 03:14:00,33.7,31.0,30.24,NNW,331,0.7,2.2,90,0.00,,,0.00,WUHU216HW,2013-03-06 08:14:00,
2013-03-06 03:29:00,33.5,31.1,30.24,ESE,107,1.0,3.1,91,0.00,,,0.00,WUHU216HW,2013-03-06 08:29:00,
2013-03-06 03:44:00,33.5,31.1,30.24,NW,313,0.7,1.6,91,0.00,,,0.00,WUHU216HW,2013-03-06 08:44:00,
2013-03-06 03:59:00,33.5,31.1,30.24,SSE,167,0.8,1.8,91,0.00,,,0.00,WUHU216HW,2013-03-06 08:59:00,
2013-03-06 04:14:00,33.5,31.1,30.24,South,180,0.9,2.7,91,0.00,,,0.00,WUHU216HW,2013-03-06 09:14:00,
2013-03-06 04:29:00,33.5,31.1,30.24,South,180,0.5,1.8,91,0.00,,,0.00,WUHU216HW,2013-03-06 09:29:00,
2013-03-06 04:44:00,33.5,31.1,30.24,South,180,0.6,1.1,91,0.00,,,0.00,WUHU216HW,2013-03-06 09:44:00,
2013-03-06 04:59:00,33.5,31.3,30.24,South,180,0.6,1.8,92,0.00,,,0.00,WUHU216HW,2013-03-06 09:59:00,
2013-03-06 05:14:00,33.5,31.3,30.25,South,180,0.8,1.8,92,0.00,,,0.00,WUHU216HW,2013-03-06 10:14:00,
2013-03-06 05:29:00,33.5,31.3,30.26,South,180,0.8,1.8,92,0.00,,,0.00,WUHU216HW,2013-03-06 10:29:00,
2013-03-06 05:44:00,33.5,31.3,30.26,South,180,0.6,1.6,92,0.00,,,0.00,WUHU216HW,2013-03-06 10:44:00,
2013-03-06 05:59:00,33.3,31.1,30.26,South,180,0.7,2.2,92,0.00,,,0.00,WUHU216HW,2013-03-06 10:59:00,
2013-03-06 06:14:00,33.3,31.1,30.26,South,180,0.8,2.5,92,0.00,,,0.00,WUHU216HW,2013-03-06 11:14:00,
2013-03-06 06:29:00,33.1,31.1,30.27,South,180,1.1,5.4,92,0.00,,,0.00,WUHU216HW,2013-03-06 11:29:00,
2013-03-06 06:44:00,33.1,31.1,30.27,South,180,1.1,3.4,92,0.00,,,0.00,WUHU216HW,2013-03-06 11:44:00,
2013-03-06 06:59:00,32.9,30.9,30.28,South,180,1.2,3.4,92,0.00,,,0.00,WUHU216HW,2013-03-06 11:59:00,
2013-03-06 07:14:00,33.1,31.1,30.28,South,180,0.8,2.5,92,0.00,,,0.00,WUHU216HW,2013-03-06 12:14:00,
2013-03-06 07:29:00,33.1,31.1,30.29,South,180,1.0,4.7,92,0.00,,,0.00,WUHU216HW,2013-03-06 12:29:00,
2013-03-06 07:44:00,33.1,31.1,30.29,South,180,1.1,4.5,92,0.00,,,0.00,WUHU216HW,2013-03-06 12:44:00,
2013-03-06 07:59:00,33.1,30.8,30.30,South,180,0.7,3.1,91,0.00,,,0.00,WUHU216HW,2013-03-06 12:59:00,
2013-03-06 08:14:00,33.1,30.8,30.30,South,180,0.6,3.1,91,0.00,,,0.00,WUHU216HW,2013-03-06 13:14:00,
2013-03-06 08:29:00,33.1,30.8,30.30,South,180,1.2,4.0,91,0.00,,,0.00,WUHU216HW,2013-03-06 13:29:00,
2013-03-06 08:44:00,33.1,30.8,30.30,South,180,0.7,1.6,91,0.00,,,0.00,WUHU216HW,2013-03-06 13:44:00,
2013-03-06 08:59:00,33.3,30.7,30.30,South,180,1.1,4.0,90,0.00,,,0.00,WUHU216HW,2013-03-06 13:59:00,
2013-03-06 09:14:00,33.5,30.8,30.31,South,180,0.9,3.6,90,0.00,,,0.00,WUHU216HW,2013-03-06 14:14:00,
2013-03-06 09:29:00,33.5,30.2,30.31,South,180,1.4,6.7,88,0.00,,,0.00,WUHU216HW,2013-03-06 14:29:00,
2013-03-06 09:44:00,33.5,30.2,30.31,South,180,1.1,3.8,88,0.00,,,0.00,WUHU216HW,2013-03-06 14:44:00,
2013-03-06 09:59:00,33.5,30.0,30.32,South,180,1.3,2.9,87,0.00,,,0.00,WUHU216HW,2013-03-06 14:59:00,
2013-03-06 10:14:00,33.3,29.8,30.32,South,180,1.8,4.7,87,0.00,,,0.00,WUHU216HW,2013-03-06 15:14:00,
2013-03-06 10:29:00,33.1,29.3,30.32,South,180,1.4,3.4,86,0.00,,,0.00,WUHU216HW,2013-03-06 15:29:00,
2013-03-06 10:44:00,32.9,29.2,30.32,South,180,1.3,4.5,86,0.00,,,0.00,WUHU216HW,2013-03-06 15:44:00,
2013-03-06 10:59:00,33.5,29.7,30.32,South,180,1.0,2.2,86,0.00,,,0.00,WUHU216HW,2013-03-06 15:59:00,
2013-03-06 11:14:00,33.5,29.3,30.32,South,180,1.2,4.5,85,0.00,,,0.00,WUHU216HW,2013-03-06 16:14:00,
2013-03-06 11:29:00,34.0,30.2,30.31,South,180,0.5,1.3,86,0.00,,,0.00,WUHU216HW,2013-03-06 16:29:00,
2013-03-06 11:44:00,34.2,30.1,30.30,South,180,0.7,2.0,85,0.00,,,0.00,WUHU216HW,2013-03-06 16:44:00,
2013-03-06 11:59:00,34.4,30.2,30.30,South,180,0.9,3.1,85,0.00,,,0.00,WUHU216HW,2013-03-06 16:59:00,
2013-03-06 12:14:00,34.4,30.0,30.30,South,180,1.3,4.0,84,0.00,,,0.00,WUHU216HW,2013-03-06 17:14:00,
2013-03-06 12:29:00,34.6,30.4,30.30,SSW,203,0.9,2.5,85,0.00,,,0.00,WUHU216HW,2013-03-06 17:29:00,
2013-03-06 12:44:00,34.6,30.4,30.29,East,85,1.1,3.4,85,0.00,,,0.00,WUHU216HW,2013-03-06 17:44:00,
2013-03-06 12:59:00,34.7,30.6,30.29,East,101,1.3,5.1,85,0.00,,,0.00,WUHU216HW,2013-03-06 17:59:00,
2013-03-06 13:14:00,34.9,30.8,30.28,NE,49,1.2,5.4,85,0.00,,,0.00,WUHU216HW,2013-03-06 18:14:00,
2013-03-06 13:29:00,34.9,30.8,30.28,North,10,1.5,4.7,85,0.00,,,0.00,WUHU216HW,2013-03-06 18:29:00,
2013-03-06 13:44:00,34.9,30.8,30.28,ENE,76,1.7,4.9,85,0.00,,,0.00,WUHU216HW,2013-03-06 18:44:00,
2013-03-06 13:59:00,34.9,30.8,30.28,ENE,69,1.0,4.0,85,0.00,,,0.00,WUHU216HW,2013-03-06 18:59:00,
2013-03-06 14:14:00,35.1,31.0,30.28,SW,214,1.2,3.4,85,0.00,,,0.00,WUHU216HW,2013-03-06 19:14:00,
2013-03-06 14:29:00,35.3,31.1,30.28,ESE,120,1.0,2.9,85,0.00,,,0.00,WUHU216HW,2013-03-06 19:29:00,
2013-03-06 14:44:00,34.9,30.5,30.28,NW,306,1.3,3.8,84,0.00,,,0.00,WUHU216HW,2013-03-06 19:44:00,
2013-03-06 14:59:00,34.9,30.8,30.28,ENE,75,1.0,2.5,85,0.00,,,0.00,WUHU216HW,2013-03-06 19:59:00,
2013-03-06 15:14:00,34.7,30.3,30.29,ESE,109,1.9,6.5,84,0.00,,,0.00,WUHU216HW,2013-03-06 20:14:00,
2013-03-06 15:29:00,34.4,30.2,30.30,East,98,1.4,3.6,85,0.00,,,0.00,WUHU216HW,2013-03-06 20:29:00,
2013-03-06 15:44:00,34.2,30.3,30.30,East,96,1.6,4.0,86,0.00,,,0.00,WUHU216HW,2013-03-06 20:44:00,
2013-03-06 15:59:00,34.2,30.3,30.29,ESE,118,1.4,7.2,86,0.00,,,0.00,WUHU216HW,2013-03-06 20:59:00,
2013-03-06 16:14:00,34.2,30.3,30.29,ESE,109,0.9,2.7,86,0.00,,,0.00,WUHU216HW,2013-03-06 21:14:00,
2013-03-06 16:29:00,34.2,30.3,30.29,ESE,112,1.1,3.4,86,0.00,,,0.00,WUHU216HW,2013-03-06 21:29:00,
2013-03-06 16:44:00,33.8,30.2,30.30,South,188,1.0,3.1,87,0.00,,,0.00,WUHU216HW,2013-03-06 21:44:00,
2013-03-06 16:59:00,33.7,30.2,30.30,East,79,1.3,3.4,87,0.00,,,0.00,WUHU216HW,2013-03-06 21:59:00,
2013-03-06 17:14:00,33.5,30.0,30.30,ESE,119,1.6,3.4,87,0.00,,,0.00,WUHU216HW,2013-03-06 22:14:00,
2013-03-06 17:29:00,33.1,29.6,30.31,East,96,1.9,7.2,87,0.00,,,0.00,WUHU216HW,2013-03-06 22:29:00,
2013-03-06 17:44:00,32.9,29.4,30.31,ESE,115,1.8,7.8,87,0.00,,,0.00,WUHU216HW,2013-03-06 22:44:00,
2013-03-06 17:59:00,32.8,29.4,30.32,ENE,65,1.8,4.7,87,0.00,,,0.00,WUHU216HW,2013-03-06 22:59:00,
2013-03-06 18:14:00,32.8,29.0,30.33,East,100,1.8,4.5,86,0.00,,,0.00,WUHU216HW,2013-03-06 23:14:00,
2013-03-06 18:29:00,32.6,29.2,30.32,ENE,73,2.1,5.4,87,0.00,,,0.00,WUHU216HW,2013-03-06 23:29:00,
2013-03-06 18:44:00,32.4,29.0,30.33,East,101,1.4,4.7,87,0.00,,,0.00,WUHU216HW,2013-03-06 23:44:00,
2013-03-06 19:00:00,32.2,28.8,30.33,North,6,1.1,3.1,87,0.00,,,0.00,WUHU216HW,2013-03-07 00:00:00,
2013-03-06 19:15:00,32.2,28.5,30.34,SSW,201,0.9,3.8,86,0.00,,,0.00,WUHU216HW,2013-03-07 00:15:00,
2013-03-06 19:30:00,32.0,28.4,30.33,NNW,344,1.0,3.1,86,0.00,,,0.00,WUHU216HW,2013-03-07 00:30:00,
2013-03-06 19:45:00,32.0,28.1,30.33,East,93,2.3,5.4,85,0.00,,,0.00,WUHU216HW,2013-03-07 00:45:00,
2013-03-06 20:00:00,32.0,28.1,30.33,SE,131,1.5,4.5,85,0.00,,,0.00,WUHU216HW,2013-03-07 01:00:00,
2013-03-06 20:15:00,31.9,28.2,30.32,NNW,346,1.3,4.5,86,0.00,,,0.00,WUHU216HW,2013-03-07 01:15:00,
2013-03-06 20:30:00,31.9,28.2,30.32,WNW,303,1.0,3.1,86,0.00,,,0.00,WUHU216HW,2013-03-07 01:30:00,
2013-03-06 20:45:00,31.7,27.7,30.32,NNE,13,1.3,4.5,85,0.00,,,0.00,WUHU216HW,2013-03-07 01:45:00,
2013-03-06 21:00:00,31.5,27.3,30.31,NNW,327,1.9,5.4,84,0.00,,,0.00,WUHU216HW,2013-03-07 02:00:00,
2013-03-06 21:15:00,31.3,27.1,30.31,WSW,257,1.6,5.6,84,0.00,,,0.00,WUHU216HW,2013-03-07 02:15:00,
2013-03-06 21:30:00,31.3,27.1,30.31,ESE,111,1.4,4.7,84,0.00,,,0.00,WUHU216HW,2013-03-07 02:30:00,
2013-03-06 21:45:00,31.3,26.8,30.31,North,1,2.0,5.8,83,0.00,,,0.00,WUHU216HW,2013-03-07 02:45:00,
2013-03-06 22:00:00,31.3,26.8,30.31,WNW,297,1.4,5.1,83,0.00,,,0.00,WUHU216HW,2013-03-07 03:00:00,
2013-03-06 22:15:00,31.1,26.7,30.30,SE,129,1.6,7.4,83,0.00,,,0.00,WUHU216HW,2013-03-07 03:15:00,
2013-03-06 22:30:00,31.0,26.5,30.30,NE,47,1.3,4.3,83,0.00,,,0.00,WUHU216HW,2013-03-07 03:30:00,
2013-03-06 22:45:00,31.0,26.5,30.30,NNW,327,1.3,3.4,83,0.00,,,0.00,WUHU216HW,2013-03-07 03:45:00,
2013-03-06 23:00:00,30.8,26.3,30.30,SW,223,1.0,4.0,83,0.00,,,0.00,WUHU216HW,2013-03-07 04:00:00,
2013-03-06 23:15:00,30.8,26.6,30.30,NNW,333,1.0,3.6,84,0.00,,,0.00,WUHU216HW,2013-03-07 04:15:00,
2013-03-06 23:30:00,30.8,26.8,30.29,NW,318,1.2,3.8,85,0.00,,,0.00,WUHU216HW,2013-03-07 04:30:00,
2013-03-06 23:45:00,30.6,26.6,30.29,NNW,339,1.3,4.0,85,0.00,,,0.00,WUHU216HW,2013-03-07 04:45:00,